Temp
-17 -17 -16 -16 -16 -17 -17 -16 -16 -16 -16 -17 -17 -17 -17 -18 -18 -18 -18 -18 -18 -17 -16 -17 -17 -17 -17 -18 -18 -18 -18 -19 -20 -21 -21 -22 -21 -22 -23 -23 -23 -24 -25 -25 -25 -25 -25 -26 -26 -27 -27 -28 -29 -29
-17 -17 -17 -17 -17 -17 -17 -17 -17 -17 -17 -17 -17 -17 -17 -17 -17 -17 -17 -17 -18 -18 -16 -16 -17 -17 -17 -18 -18 -19 -19 -20 -21 -21 -22 -22 -22 -22 -23 -23 -24 -24 -25 -26 -26 -25 -26 -26 -26 -27 -28 -28 -29 -30
-17 -17 -18 -18 -18 -17 -17 -17 -17 -17 -17 -17 -17 -17 -17 -17 -17 -17 -17 -17 -17 -17 -17 -17 -17 -17 -18 -18 -18 -19 -20 -21 -21 -22 -23 -23 -23 -23 -23 -23 -24 -25 -26 -26 -26 -25 -26 -26 -27 -28 -28 -29 -30 -30
-18 -18 -18 -18 -18 -18 -18 -18 -17 -17 -17 -17 -17 -17 -17 -17 -17 -17 -17 -17 -18 -18 -18 -17 -17 -18 -18 -18 -19 -20 -21 -21 -22 -23 -23 -23 -23 -23 -23 -24 -24 -25 -26 -26 -25 -26 -26 -26 -28 -29 -29 -30 -31 -31
-21 -21 -20 -19 -19 -18 -18 -18 -18 -18 -18 -17 -17 -17 -17 -17 -17 -17 -17 -17 -17 -19 -19 -19 -18 -18 -18 -19 -19 -20 -21 -22 -23 -23 -23 -23 -23 -24 -24 -25 -25 -26 -27 -26 -26 -27 -27 -27 -28 -29 -30 -31 -31 -32
-21 -21 -21 -21 -22 -21 -20 -20 -19 -19 -19 -18 -18 -18 -18 -18 -18 -18 -17 -19 -20 -22 -22 -21 -19 -18 -19 -20 -20 -21 -22 -23 -23 -23 -24 -24 -24 -24 -25 -25 -26 -27 -26 -27 -27 -27 -27 -28 -29 -30 -31 -32 -32 -33
-22 -22 -22 -22 -23 -23 -23 -23 -22 -22 -22 -22 -22 -21 -21 -22 -22 -21 -21 -21 -23 -24 -23 -22 -20 -19 -20 -21 -21 -22 -23 -23 -24 -24 -24 -24 -25 -25 -26 -26 -27 -27 -27 -27 -27 -28 -29 -29 -30 -32 -32 -33 -33 -33
-22 -22 -22 -23 -23 -24 -24 -24 -24 -24 -24 -24 -23 -23 -23 -24 -24 -24 -25 -24 -24 -24 -23 -22 -21 -21 -21 -22 -23 -23 -23 -24 -24 -24 -24 -25 -25 -26 -26 -27 -27 -27 -28 -28 -28 -29 -30 -31 -32 -33 -34 -34 -34 -34
-24 -23 -23 -23 -24 -24 -24 -24 -24 -24 -24 -25 -25 -25 -24 -24 -25 -26 -25 -26 -25 -25 -24 -23 -22 -22 -22 -23 -23 -24 -24 -24 -24 -25 -25 -26 -26 -27 -27 -27 -27 -28 -28 -29 -29 -31 -32 -33 -34 -34 -35 -35 -35 -35
-26 -26 -26 -26 -25 -25 -25 -25 -25 -25 -25 -25 -26 -26 -26 -25 -25 -26 -26 -26 -25 -24 -24 -23 -23 -24 -24 -24 -24 -25 -25 -25 -26 -25 -26 -26 -26 -27 -27 -28 -28 -28 -29 -30 -31 -32 -33 -35 -35 -35 -35 -35 -35 -35
-28 -28 -27 -26 -27 -27 -27 -26 -26 -26 -26 -26 -26 -26 -26 -26 -26 -26 -26 -26 -25 -24 -24 -23 -24 -25 -25 -25 -26 -26 -26 -26 -26 -26 -27 -26 -27 -27 -28 -28 -29 -29 -30 -31 -32 -34 -35 -35 -36 -36 -36 -36 -36 -36
-28 -28 -28 -28 -28 -28 -27 -27 -27 -28 -27 -27 -27 -27 -26 -26 -26 -26 -26 -26 -25 -26 -25 -25 -25 -26 -26 -26 -27 -27 -27 -27 -27 -27 -27 -27 -28 -28 -29 -29 -30 -30 -32 -33 -34 -35 -35 -36 -36 -36 -36 -36 -36 -36
-29 -29 -28 -28 -28 -29 -29 -29 -29 -29 -28 -28 -28 -28 -27 -28 -28 -27 -27 -26 -26 -26 -25 -26 -27 -27 -27 -27 -27 -27 -27 -27 -27 -28 -28 -29 -29 -29 -30 -30 -31 -32 -34 -34 -35 -36 -36 -36 -36 -36 -36 -36 -37 -37
-30 -30 -29 -29 -29 -29 -29 -30 -31 -30 -30 -30 -29 -29 -29 -29 -29 -28 -27 -27 -27 -26 -26 -27 -27 -27 -27 -28 -28 -28 -28 -28 -28 -29 -29 -30 -30 -30 -31 -32 -33 -34 -35 -35 -36 -36 -36 -36 -36 -36 -37 -37 -38 -38
-32 -31 -30 -30 -29 -29 -30 -31 -31 -31 -31 -31 -32 -31 -30 -30 -29 -29 -28 -27 -27 -28 -28 -28 -28 -28 -28 -28 -28 -28 -29 -29 -30 -30 -31 -31 -32 -32 -33 -34 -35 -35 -36 -36 -36 -37 -37 -36 -36 -37 -38 -38 -38 -39
-34 -34 -32 -31 -31 -30 -30 -31 -31 -31 -32 -32 -32 -31 -30 -30 -29 -29 -28 -28 -29 -29 -28 -28 -28 -28 -28 -28 -29 -29 -30 -30 -31 -32 -32 -33 -33 -34 -35 -35 -36 -36 -36 -36 -37 -37 -37 -37 -37 -38 -38 -39 -39 -39
-36 -35 -34 -33 -32 -32 -32 -32 -32 -32 -33 -32 -31 -31 -30 -30 -29 -29 -29 -29 -29 -29 -29 -29 -29 -28 -29 -29 -30 -30 -31 -32 -33 -33 -34 -35 -35 -36 -36 -36 -37 -37 -37 -37 -37 -37 -37 -37 -38 -39 -39 -40 -40 -40
-36 -35 -35 -34 -33 -34 -34 -34 -34 -32 -32 -32 -31 -30 -30 -30 -30 -30 -29 -29 -29 -29 -29 -29 -29 -29 -30 -30 -31 -32 -33 -33 -34 -35 -35 -36 -36 -37 -37 -37 -37 -37 -37 -38 -38 -37 -37 -38 -39 -40 -40 -40 -41 -41
-36 -36 -36 -36 -35 -35 -35 -34 -34 -33 -33 -32 -31 -31 -31 -30 -30 -29 -30 -30 -30 -29 -29 -29 -30 -30 -31 -32 -33 -33 -34 -35 -35 -36 -36 -37 -37 -37 -38 -38 -38 -38 -38 -38 -38 -37 -38 -39 -40 -40 -40 -41 -41 -41
-37 -36 -35 -36 -36 -35 -34 -34 -33 -33 -33 -32 -32 -31 -31 -30 -30 -30 -30 -30 -30 -30 -30 -31 -31 -32 -33 -33 -34 -35 -35 -36 -36 -36 -37 -37 -38 -38 -38 -38 -38 -38 -38 -38 -38 -38 -38 -39 -40 -40 -41 -41 -41 -41
-36 -35 -35 -35 -35 -34 -34 -34 -33 -33 -32 -32 -31 -31 -31 -30 -30 -30 -30 -31 -31 -31 -31 -32 -33 -33 -34 -34 -35 -35 -36 -36 -37 -37 -37 -38 -38 -38 -38 -39 -39 -39 -38 -39 -39 -38 -39 -39 -40 -40 -41 -41 -41 -41
-35 -35 -34 -34 -34 -34 -34 -33 -33 -32 -32 -32 -31 -31 -30 -31 -31 -31 -31 -31 -32 -32 -33 -33 -34 -34 -35 -35 -35 -36 -36 -37 -37 -37 -38 -38 -38 -39 -39 -39 -39 -39 -39 -39 -39 -39 -39 -39 -40 -40 -41 -41 -41 -41
-35 -34 -34 -34 -33 -33 -32 -32 -32 -31 -31 -31 -31 -31 -31 -31 -31 -31 -32 -32 -33 -33 -34 -34 -34 -35 -35 -36 -36 -36 -36 -37 -37 -37 -38 -38 -39 -39 -39 -39 -39 -39 -39 -39 -39 -39 -40 -40 -40 -40 -41 -41 -41 -42
-34 -34 -33 -33 -33 -33 -32 -32 -31 -31 -31 -32 -31 -31 -31 -32 -32 -32 -33 -33 -34 -34 -34 -34 -35 -35 -35 -36 -36 -36 -37 -37 -37 -38 -38 -38 -39 -39 -40 -40 -40 -40 -40 -40 -40 -40 -40 -40 -40 -40 -41 -41 -41 -42
-33 -33 -33 -32 -32 -32 -32 -31 -31 -31 -31 -31 -32 -32 -32 -32 -33 -33 -33 -34 -34 -34 -34 -35 -35 -35 -36 -36 -36 -37 -37 -37 -37 -38 -38 -38 -39 -39 -40 -40 -40 -40 -40 -40 -40 -40 -40 -40 -40 -40 -41 -41 -41 -42
-31 -31 -31 -31 -31 -31 -31 -31 -31 -31 -31 -31 -32 -32 -32 -33 -33 -33 -34 -34 -34 -35 -35 -35 -35 -36 -36 -36 -37 -37 -37 -37 -38 -38 -38 -39 -39 -39 -40 -40 -40 -41 -41 -41 -41 -41 -41 -41 -41 -41 -41 -41 -41 -42
-31 -31 -31 -31 -31 -31 -31 -31 -31 -32 -32 -32 -32 -33 -33 -33 -34 -34 -34 -34 -35 -35 -35 -35 -36 -36 -36 -37 -37 -37 -38 -38 -38 -38 -39 -39 -39 -40 -40 -40 -40 -41 -41 -41 -41 -41 -41 -41 -41 -41 -41 -41 -41 -41
-31 -31 -31 -31 -31 -31 -31 -32 -32 -32 -32 -33 -33 -33 -33 -34 -34 -34 -34 -34 -35 -35 -35 -36 -36 -37 -37 -37 -37 -38 -38 -38 -39 -39 -39 -39 -40 -40 -40 -40 -41 -41 -41 -41 -41 -41 -41 -41 -41 -42 -41 -42 -42 -42
-31 -31 -31 -31 -31 -32 -32 -32 -32 -33 -33 -33 -33 -33 -33 -34 -34 -34 -35 -35 -35 -36 -36 -36 -37 -37 -37 -38 -38 -38 -39 -39 -39 -39 -39 -40 -40 -40 -40 -40 -41 -41 -41 -41 -42 -42 -42 -42 -42 -42 -42 -42 -42 -42
-31 -31 -31 -32 -32 -32 -32 -32 -32 -33 -33 -33 -33 -33 -34 -34 -34 -34 -35 -35 -35 -36 -36 -36 -37 -37 -38 -38 -38 -39 -39 -39 -39 -39 -40 -40 -40 -40 -40 -41 -41 -41 -41 -41 -42 -42 -42 -42 -42 -42 -42 -42 -42 -42
-31 -32 -32 -32 -32 -32 -32 -32 -32 -33 -33 -33 -33 -33 -34 -34 -34 -34 -35 -35 -35 -36 -36 -37 -37 -38 -38 -38 -39 -39 -39 -39 -40 -40 -40 -40 -40 -41 -41 -41 -41 -41 -42 -42 -42 -42 -42 -42 -42 -42 -42 -42 -42 -42
-31 -32 -32 -32 -32 -32 -32 -32 -32 -33 -33 -33 -33 -33 -34 -34 -34 -35 -35 -36 -36 -36 -37 -37 -38 -38 -38 -38 -39 -39 -39 -40 -40 -40 -41 -41 -41 -41 -41 -41 -42 -42 -42 -42 -42 -42 -42 -42 -42 -42 -43 -43 -43 -43
-31 -32 -32 -32 -32 -32 -32 -32 -33 -33 -33 -33 -33 -34 -34 -34 -35 -35 -35 -36 -36 -37 -37 -37 -38 -38 -38 -39 -39 -40 -40 -40 -40 -40 -41 -41 -41 -41 -41 -42 -42 -42 -42 -42 -42 -42 -42 -43 -43 -43 -43 -43 -43 -43
Height
5621 5620 5618 5617 5615 5614 5612 5609 5607 5604 5601 5598 5596 5593 5590 5586 5582 5577 5576 5570 5558 5552 5552 5551 5545 5540 5531 5524 5514 5503 5496 5492 5483 5477 5469 5461 5451 5444 5439 5433 5428 5419 5409 5401 5392 5384 5376 5370 5362 5355 5348 5339 5334 5329
5600 5599 5598 5596 5594 5593 5591 5589 5587 5585 5583 5580 5578 5576 5572 5569 5564 5557 5557 5552 5543 5531 5536 5534 5530 5526 5517 5509 5499 5488 5484 5475 5467 5461 5455 5444 5438 5429 5427 5420 5413 5406 5401 5391 5383 5374 5364 5356 5349 5342 5334 5326 5322 5317
5576 5574 5574 5574 5572 5571 5570 5569 5567 5565 5563 5561 5560 5558 5555 5552 5547 5541 5539 5535 5527 5517 5515 5516 5516 5510 5502 5496 5487 5474 5467 5463 5456 5449 5441 5433 5424 5417 5412 5405 5399 5394 5385 5377 5369 5365 5352 5344 5337 5328 5320 5313 5309 5305
5552 5551 5550 5549 5548 5549 5548 5546 5545 5544 5542 5541 5539 5538 5536 5533 5529 5525 5522 5520 5510 5499 5492 5498 5494 5492 5486 5479 5470 5461 5453 5446 5441 5434 5426 5419 5412 5404 5398 5391 5387 5381 5370 5361 5356 5350 5340 5335 5326 5315 5306 5300 5295 5291
5529 5527 5525 5524 5523 5523 5522 5521 5521 5520 5519 5517 5516 5515 5514 5511 5506 5504 5505 5502 5492 5483 5472 5472 5474 5474 5468 5461 5453 5445 5438 5431 5424 5418 5411 5403 5397 5390 5383 5378 5375 5365 5355 5346 5339 5333 5325 5320 5312 5302 5294 5287 5282 5278
5502 5502 5501 5501 5500 5498 5497 5497 5496 5494 5494 5493 5492 5492 5491 5487 5482 5480 5483 5484 5472 5464 5453 5451 5453 5454 5450 5443 5437 5430 5424 5417 5410 5403 5396 5389 5384 5375 5367 5365 5360 5349 5342 5332 5323 5314 5308 5302 5295 5288 5281 5274 5270 5266
5472 5474 5475 5475 5475 5475 5475 5474 5474 5474 5473 5472 5471 5471 5471 5467 5463 5463 5462 5460 5456 5451 5443 5434 5431 5438 5432 5425 5420 5414 5408 5401 5394 5387 5382 5376 5369 5361 5354 5349 5340 5333 5325 5317 5308 5298 5290 5283 5277 5271 5266 5260 5256 5253
5438 5441 5444 5446 5447 5449 5451 5452 5453 5452 5451 5452 5452 5453 5452 5449 5446 5447 5445 5442 5439 5435 5429 5421 5419 5418 5414 5408 5402 5397 5391 5384 5379 5372 5368 5361 5354 5346 5340 5334 5325 5317 5308 5299 5291 5282 5274 5267 5260 5254 5250 5245 5241 5238
5399 5404 5409 5413 5417 5421 5424 5427 5429 5431 5431 5431 5431 5430 5430 5431 5431 5430 5425 5424 5424 5423 5415 5412 5408 5402 5398 5393 5386 5379 5374 5368 5364 5359 5354 5347 5341 5331 5323 5317 5309 5301 5292 5283 5274 5265 5258 5252 5246 5240 5234 5231 5226 5223
5365 5368 5372 5377 5383 5388 5393 5398 5403 5406 5405 5412 5412 5409 5406 5413 5411 5410 5406 5405 5406 5406 5403 5401 5394 5387 5381 5375 5368 5363 5357 5353 5346 5345 5337 5333 5327 5316 5307 5300 5292 5284 5276 5267 5258 5249 5241 5234 5229 5224 5219 5216 5211 5208
5334 5338 5342 5345 5351 5357 5363 5369 5375 5377 5378 5384 5387 5389 5390 5392 5391 5388 5385 5390 5388 5388 5386 5385 5378 5369 5364 5359 5353 5347 5341 5336 5332 5331 5321 5316 5310 5302 5293 5285 5276 5268 5259 5250 5242 5234 5226 5220 5214 5209 5204 5200 5195 5191
5309 5311 5315 5319 5322 5327 5334 5341 5346 5348 5353 5356 5364 5363 5367 5369 5368 5369 5368 5374 5375 5370 5370 5364 5359 5353 5348 5343 5338 5333 5328 5322 5317 5312 5306 5299 5293 5285 5278 5269 5260 5251 5243 5234 5226 5219 5212 5205 5199 5193 5187 5182 5178 5175
5284 5287 5290 5295 5299 5303 5308 5313 5319 5320 5328 5332 5338 5340 5344 5346 5344 5348 5355 5360 5360 5357 5353 5348 5345 5341 5335 5331 5325 5320 5314 5309 5303 5298 5290 5285 5276 5269 5261 5253 5244 5236 5227 5219 5212 5204 5197 5190 5184 5178 5171 5166 5160 5158
5262 5266 5269 5272 5277 5283 5289 5294 5297 5300 5307 5312 5317 5319 5323 5326 5327 5337 5344 5345 5345 5342 5338 5335 5332 5328 5322 5318 5313 5307 5300 5295 5289 5284 5278 5270 5261 5253 5246 5238 5230 5222 5213 5206 5198 5190 5183 5175 5168 5162 5156 5150 5146 5144
5245 5247 5250 5255 5261 5267 5272 5275 5279 5283 5290 5295 5300 5302 5306 5315 5321 5327 5330 5330 5329 5326 5325 5322 5319 5317 5312 5307 5302 5295 5288 5282 5276 5270 5264 5256 5249 5241 5232 5225 5217 5209 5202 5193 5185 5177 5170 5162 5154 5147 5143 5138 5134 5132
5233 5235 5238 5241 5245 5253 5257 5260 5266 5271 5275 5280 5286 5291 5300 5307 5313 5316 5316 5315 5316 5316 5313 5311 5307 5304 5300 5295 5290 5284 5278 5271 5265 5258 5252 5245 5237 5229 5221 5213 5206 5198 5190 5181 5174 5166 5158 5150 5142 5136 5132 5128 5125 5123
5226 5228 5230 5234 5239 5243 5248 5253 5258 5262 5266 5271 5279 5287 5294 5299 5302 5304 5305 5305 5306 5305 5302 5299 5296 5293 5289 5284 5279 5274 5268 5262 5255 5248 5241 5234 5227 5219 5211 5204 5196 5188 5180 5171 5164 5155 5147 5139 5132 5127 5124 5120 5118 5116
5221 5222 5225 5228 5233 5238 5244 5249 5256 5261 5264 5270 5277 5283 5287 5291 5293 5294 5295 5296 5295 5294 5292 5290 5287 5283 5278 5274 5269 5265 5259 5253 5247 5240 5233 5226 5219 5211 5203 5196 5188 5180 5172 5164 5156 5147 5138 5130 5124 5120 5117 5114 5111 5109
5218 5220 5224 5226 5230 5235 5241 5247 5253 5258 5262 5267 5273 5276 5280 5284 5285 5287 5288 5288 5288 5286 5283 5280 5277 5273 5269 5266 5262 5257 5251 5245 5239 5233 5226 5218 5212 5205 5197 5189 5182 5174 5166 5158 5150 5141 5132 5124 5119 5114 5111 5108 5106 5103
5217 5218 5222 5225 5230 5232 5237 5245 5249 5254 5259 5265 5270 5274 5277 5279 5281 5281 5281 5281 5279 5278 5275 5273 5269 5266 5264 5260 5256 5251 5246 5239 5233 5226 5219 5213 5206 5199 5192 5185 5177 5169 5161 5153 5145 5137 5128 5120 5115 5110 5106 5103 5101 5099
5217 5217 5220 5224 5227 5233 5239 5244 5249 5255 5259 5264 5269 5272 5274 5276 5276 5275 5275 5274 5274 5272 5269 5267 5265 5262 5259 5255 5251 5246 5241 5235 5229 5222 5215 5207 5200 5194 5187 5181 5173 5166 5158 5150 5142 5134 5126 5118 5112 5107 5103 5100 5098 5096
5219 5220 5223 5226 5230 5235 5241 5246 5251 5256 5261 5265 5268 5270 5271 5272 5272 5272 5271 5271 5269 5267 5266 5264 5261 5259 5255 5252 5247 5242 5236 5231 5225 5218 5211 5204 5197 5191 5184 5177 5170 5163 5156 5149 5141 5134 5126 5118 5111 5105 5101 5098 5095 5093
5224 5226 5227 5231 5235 5240 5245 5248 5253 5256 5261 5264 5266 5268 5269 5269 5270 5270 5270 5268 5267 5266 5264 5262 5259 5256 5252 5248 5243 5238 5233 5227 5221 5215 5208 5201 5194 5187 5180 5174 5168 5162 5155 5148 5141 5134 5126 5119 5112 5106 5100 5096 5093 5090
5232 5234 5236 5238 5241 5245 5249 5252 5256 5259 5262 5265 5267 5268 5269 5269 5270 5270 5269 5268 5267 5265 5263 5260 5257 5253 5249 5244 5239 5234 5228 5222 5217 5211 5205 5199 5192 5185 5178 5172 5166 5160 5154 5148 5141 5134 5128 5121 5114 5108 5102 5096 5092 5088
5242 5243 5244 5246 5249 5252 5255 5257 5260 5263 5265 5267 5269 5270 5271 5272 5272 5271 5270 5269 5267 5265 5262 5258 5254 5250 5245 5240 5234 5229 5223 5218 5213 5207 5202 5195 5189 5182 5176 5170 5164 5159 5153 5147 5141 5135 5129 5122 5116 5110 5104 5099 5094 5089
5250 5252 5254 5256 5259 5261 5263 5265 5267 5270 5272 5273 5274 5275 5275 5275 5275 5274 5273 5271 5268 5264 5260 5256 5251 5246 5241 5236 5230 5225 5220 5214 5209 5203 5198 5192 5186 5180 5174 5168 5162 5157 5151 5145 5140 5135 5130 5124 5119 5113 5108 5102 5097 5092
5261 5262 5265 5266 5269 5272 5274 5276 5277 5279 5280 5280 5281 5281 5281 5280 5278 5277 5274 5270 5266 5262 5257 5252 5248 5242 5237 5232 5226 5221 5215 5210 5205 5199 5194 5188 5182 5177 5171 5166 5160 5154 5149 5144 5139 5134 5130 5125 5120 5115 5111 5106 5101 5096
5274 5275 5279 5281 5282 5285 5286 5287 5287 5288 5288 5288 5288 5287 5285 5283 5281 5278 5273 5269 5265 5260 5254 5249 5244 5239 5233 5228 5222 5217 5211 5206 5200 5195 5189 5184 5179 5174 5168 5163 5157 5152 5147 5142 5138 5133 5129 5124 5120 5116 5112 5107 5103 5098
5291 5293 5295 5295 5297 5297 5297 5298 5297 5297 5296 5295 5293 5291 5289 5285 5282 5278 5274 5269 5263 5258 5252 5247 5241 5235 5230 5224 5218 5212 5207 5201 5195 5189 5184 5179 5174 5169 5164 5159 5153 5149 5144 5139 5135 5130 5126 5122 5118 5115 5111 5107 5103 5100
5306 5308 5308 5309 5309 5307 5307 5306 5305 5304 5302 5300 5298 5295 5292 5288 5283 5279 5273 5268 5262 5257 5251 5245 5239 5233 5227 5220 5214 5208 5202 5196 5190 5185 5179 5173 5168 5163 5157 5153 5148 5143 5139 5135 5131 5127 5123 5119 5116 5113 5109 5106 5103 5100
5319 5322 5323 5322 5319 5317 5316 5315 5313 5311 5309 5306 5302 5299 5295 5290 5285 5280 5274 5268 5262 5256 5250 5243 5237 5230 5223 5216 5210 5204 5197 5191 5185 5179 5173 5167 5162 5156 5151 5147 5142 5137 5133 5128 5124 5121 5118 5114 5111 5108 5105 5103 5100 5097
5334 5333 5333 5332 5329 5327 5325 5323 5321 5318 5314 5311 5307 5303 5298 5294 5288 5283 5277 5270 5263 5255 5248 5240 5233 5226 5219 5211 5204 5198 5191 5185 5178 5172 5166 5160 5155 5150 5144 5140 5135 5130 5126 5122 5118 5114 5111 5108 5105 5102 5099 5097 5095 5092
5345 5344 5343 5341 5339 5336 5334 5332 5329 5325 5322 5317 5313 5308 5303 5298 5291 5285 5277 5270 5262 5254 5246 5238 5230 5222 5214 5206 5199 5191 5184 5177 5171 5164 5158 5153 5147 5142 5137 5132 5127 5123 5118 5114 5110 5106 5103 5100 5096 5094 5091 5089 5087 5085
Wind_Speed
65 66 66 65 66 68 66 65 63 61 62 64 65 65 64 64 64 65 67 67 69 70 66 63 64 65 67 66 71 64 67 63 60 60 60 58 61 60 58 59 58 53 55 58 61 62 64 59 60 59 57 55 49 42
74 74 75 76 76 73 70 69 67 66 64 62 61 62 63 64 64 63 65 63 65 70 69 68 67 65 67 64 64 70 65 61 60 61 58 61 60 62 58 61 55 52 54 58 59 63 62 62 62 59 57 56 48 41
76 76 74 75 76 76 74 72 71 71 71 70 68 66 65 65 65 66 66 66 67 71 70 69 67 68 62 66 68 67 64 60 60 57 57 59 60 60 61 58 53 53 55 59 63 62 61 64 61 59 57 54 47 41
81 80 78 76 75 74 74 75 75 75 74 74 74 72 70 69 69 70 69 69 71 72 73 69 66 68 67 66 65 63 61 59 56 55 57 59 59 61 58 53 54 51 57 63 64 62 63 61 60 58 56 51 45 41
82 81 81 81 80 80 80 80 80 79 78 78 78 77 76 76 77 77 75 74 74 68 66 66 69 69 66 61 59 59 56 55 55 56 57 59 60 54 53 53 51 54 61 64 65 64 64 62 59 57 52 46 43 39
87 84 81 83 79 81 84 81 80 80 80 81 81 80 79 77 78 79 80 69 63 50 56 63 71 72 60 52 54 56 54 54 55 54 56 56 53 52 54 53 52 58 62 64 65 66 63 62 58 54 48 44 41 38
94 91 89 86 84 80 79 82 82 78 76 71 68 72 70 63 65 67 66 59 57 53 58 62 72 63 52 53 55 56 55 52 53 55 53 52 52 52 53 53 57 62 63 64 65 63 62 61 56 52 46 42 40 37
99 97 96 93 90 87 84 81 77 74 76 74 71 67 65 63 62 59 53 55 55 53 60 63 60 49 49 53 57 54 52 52 50 50 50 52 52 51 54 57 61 62 63 64 62 62 60 57 53 49 45 42 41 38
99 98 97 97 96 93 91 88 84 80 75 70 70 71 70 68 63 57 59 55 53 53 56 59 53 56 55 54 55 52 47 46 48 49 50 52 51 53 58 59 60 61 61 62 62 60 57 54 49 46 44 42 42 40
91 95 96 96 97 96 95 92 88 82 80 74 69 65 67 69 68 66 63 62 64 61 58 57 53 61 57 54 50 46 46 46 49 51 52 52 51 55 57 59 60 60 61 60 59 57 54 50 48 46 45 44 43 42
75 74 75 80 87 93 94 92 89 87 84 79 76 73 71 67 67 66 64 63 63 64 61 50 52 57 52 45 45 46 47 49 52 52 51 52 52 56 57 57 59 59 59 58 56 53 51 49 47 46 46 46 45 43
72 70 70 69 71 76 83 87 85 83 85 83 77 76 75 73 72 70 68 65 64 60 52 52 53 48 47 45 45 46 49 52 52 52 51 52 54 54 56 56 57 57 56 54 52 50 48 48 46 46 47 47 44 40
64 63 64 62 64 66 63 62 67 72 74 74 73 70 68 66 66 66 63 61 54 48 48 50 45 45 44 46 48 50 51 50 51 50 51 50 52 53 54 54 55 53 51 50 49 47 47 46 45 46 46 43 41 38
48 49 52 51 53 55 53 51 51 57 59 62 62 61 59 57 59 58 49 43 40 42 49 43 42 42 42 48 49 49 49 49 49 48 49 50 50 51 51 51 50 49 47 46 46 45 44 45 46 45 41 38 36 33
35 39 43 41 42 42 41 40 44 46 46 49 46 51 53 50 45 39 37 35 39 43 39 42 40 42 47 47 47 47 46 46 47 47 46 46 46 47 47 46 46 44 44 43 43 42 43 44 43 40 35 32 31 28
25 30 31 31 32 30 30 35 38 39 40 41 45 48 46 41 36 35 38 39 36 36 38 38 43 43 45 44 43 42 43 43 41 40 40 41 42 42 43 42 41 41 41 41 40 41 42 41 37 33 28 27 25 23
19 18 16 17 18 19 22 24 26 28 32 37 40 41 38 36 34 37 33 31 42 43 39 36 40 41 41 39 39 39 36 35 34 35 37 38 39 39 39 39 39 39 39 38 38 40 39 36 31 27 24 23 21 20
13 13 12 13 14 21 16 14 14 15 18 19 21 26 32 26 28 31 34 33 31 32 33 35 35 36 36 34 31 29 29 31 32 34 35 35 35 37 37 37 37 37 37 35 36 38 36 31 26 24 22 20 19 18
4 0 9 6 5 22 19 18 15 19 19 21 26 18 20 22 25 27 26 25 27 28 29 32 32 29 27 24 24 26 28 29 31 32 32 33 33 34 36 36 35 35 35 33 35 36 33 28 24 23 20 18 16 16
3 11 11 6 1 28 28 24 21 20 16 18 20 22 25 27 28 28 26 26 28 29 26 24 22 18 19 20 22 24 25 27 28 30 30 31 32 32 33 34 33 34 34 32 33 35 32 27 23 21 19 16 14 14
1 5 9 12 13 12 22 26 21 17 14 12 15 16 17 15 15 16 19 21 21 18 16 13 14 16 18 19 21 24 26 28 30 31 31 31 31 31 31 32 32 32 33 32 31 33 33 28 23 20 18 16 14 14
9 11 14 13 12 9 7 6 4 8 8 8 9 12 13 13 13 13 15 12 11 8 9 11 14 16 17 20 23 25 27 29 30 31 32 32 31 30 30 30 31 31 32 32 31 31 33 31 26 21 18 16 14 13
18 21 20 17 16 15 13 10 8 5 5 7 10 11 9 8 8 6 4 4 7 9 11 13 15 17 19 22 25 26 27 28 29 30 31 31 32 32 31 30 30 30 30 31 31 31 31 32 30 25 21 17 15 13
18 20 20 20 19 15 12 10 7 3 3 3 2 2 2 3 6 7 8 8 10 11 12 14 16 19 22 24 25 27 27 28 28 28 29 30 31 32 31 30 29 29 29 29 30 31 30 30 31 30 27 22 18 15
22 21 22 20 18 16 14 11 10 9 9 11 13 13 14 13 12 11 12 13 13 14 16 18 20 22 24 25 26 27 27 27 27 28 29 30 30 31 31 30 29 28 28 28 28 29 30 30 29 30 30 28 24 19
30 29 27 26 25 25 24 23 23 23 22 22 21 19 18 17 17 16 15 15 15 18 21 22 24 25 26 26 26 27 27 27 28 28 28 29 29 30 30 30 29 28 27 27 27 27 27 28 29 28 28 28 27 25
31 32 31 32 32 31 31 31 30 29 28 26 25 23 20 18 17 16 17 19 20 22 23 23 24 25 25 26 26 26 26 27 27 27 28 28 28 29 29 30 29 28 27 26 25 25 25 25 25 26 26 26 25 24
39 40 39 39 38 35 35 34 33 31 29 27 24 21 19 19 19 20 20 21 22 23 23 23 24 24 25 25 25 26 26 27 27 28 28 28 28 28 28 28 28 28 27 25 24 23 23 23 23 23 23 24 24 23
44 42 41 40 38 37 36 33 31 29 28 25 24 24 24 24 25 25 26 27 27 28 28 29 28 28 28 28 27 27 28 28 29 30 30 30 29 29 29 29 28 27 26 25 24 23 22 22 22 22 22 22 22 22
44 42 41 38 36 36 35 33 32 31 31 31 30 30 31 31 33 34 34 35 35 36 36 36 35 34 33 33 32 32 31 30 31 31 30 30 30 30 30 30 30 29 28 26 25 23 22 21 20 20 20 19 20 19
43 39 37 37 38 38 36 35 34 33 33 33 34 35 36 37 37 37 37 38 39 39 40 40 40 39 38 37 36 35 34 33 33 32 31 31 30 30 30 29 29 29 29 28 27 26 24 23 22 21 20 19 19 19
40 40 37 38 38 37 37 35 34 35 36 37 37 38 39 39 39 39 39 41 42 43 44 44 44 43 42 40 40 39 37 36 35 34 32 31 30 30 30 29 29 29 29 28 27 27 26 25 24 23 22 21 20 19
39 38 37 38 38 38 38 37 38 39 38 38 39 40 40 41 42 43 44 45 45 46 46 46 46 45 44 43 42 41 40 39 37 36 35 33 31 30 30 29 29 29 28 28 28 28 27 27 27 26 25 25 24 22
Wind_Direction
274 274 275 277 280 278 279 281 282 283 282 280 280 282 284 286 288 291 291 292 291 291 293 296 297 301 304 306 307 306 306 308 306 308 308 309 307 307 309 311 314 308 310 314 315 315 318 321 321 323 323 321 318 315
273 274 276 279 281 282 274 273 274 276 278 278 279 278 279 281 282 282 283 285 286 287 292 294 297 301 301 303 305 305 304 306 304 306 307 307 306 306 308 310 308 307 310 312 311 314 317 319 319 320 318 317 316 311
270 269 271 275 277 278 274 272 273 275 276 277 278 279 280 282 283 284 287 288 288 290 292 294 296 297 297 301 303 302 303 302 302 304 304 305 302 305 307 307 305 307 309 310 310 315 315 317 317 315 315 314 313 309
272 269 267 268 269 271 272 272 272 273 275 277 277 277 278 279 280 281 284 286 286 288 289 293 293 296 300 302 302 299 300 300 301 302 301 302 302 303 305 303 307 306 307 308 312 312 312 315 313 313 312 312 310 304
280 281 279 275 268 266 267 268 268 269 271 273 274 275 276 277 277 278 280 282 285 292 297 296 297 302 305 308 300 297 299 301 300 300 300 300 302 304 302 305 308 306 307 308 309 309 312 312 311 311 310 307 304 300
275 274 276 276 278 281 276 276 276 276 279 277 276 275 276 278 280 281 282 290 300 299 297 300 304 308 313 305 298 298 300 299 298 297 299 301 303 302 302 307 307 304 306 306 307 309 309 310 310 309 307 304 299 295
273 272 271 271 270 271 272 277 279 279 281 282 285 287 288 289 289 292 295 300 299 301 298 299 304 314 308 299 298 299 298 297 295 296 297 301 304 301 304 308 304 305 305 306 307 307 307 308 309 307 305 301 297 293
270 270 269 268 267 266 267 268 269 272 275 277 278 279 282 284 288 289 290 290 294 296 297 301 308 311 302 298 298 298 296 295 293 293 298 302 303 303 305 303 303 304 305 305 305 306 307 307 307 305 303 300 296 293
264 264 265 265 265 264 265 266 268 268 268 271 274 276 277 278 280 283 288 291 292 294 298 304 309 303 298 296 297 296 292 290 290 296 300 303 304 303 302 302 303 304 304 305 305 305 306 306 304 303 301 298 295 292
269 266 263 261 261 261 262 263 265 267 267 269 271 274 276 279 281 283 285 288 291 295 299 304 301 297 297 294 295 293 292 293 296 300 303 302 303 301 301 303 303 304 304 305 305 306 306 305 304 302 299 297 295 293
268 268 267 266 264 262 261 262 263 265 265 266 269 271 275 277 280 283 284 290 295 299 302 304 293 292 295 295 296 295 296 297 299 303 301 304 302 301 303 304 305 305 305 306 307 307 306 304 302 301 299 298 296 293
269 269 268 267 267 264 262 261 262 264 265 265 267 269 272 274 275 275 280 287 294 298 302 291 291 296 298 296 295 296 298 301 303 303 304 303 303 304 305 305 306 306 307 308 307 306 305 303 303 302 301 300 296 291
268 268 269 269 267 268 266 265 261 259 260 260 261 263 266 266 265 272 279 284 289 291 289 292 297 300 294 294 296 300 300 302 303 303 303 304 305 306 308 308 307 308 309 309 308 306 305 305 305 304 303 300 294 288
266 264 262 264 264 263 264 265 260 258 257 256 255 253 254 259 263 272 280 282 283 282 286 298 299 288 287 297 300 301 301 301 303 304 305 307 308 309 309 309 310 312 312 311 309 308 308 309 308 306 303 298 293 288
261 260 262 262 262 260 258 252 252 255 255 250 247 249 251 255 259 267 273 272 275 283 295 296 283 282 295 299 300 299 300 303 305 307 307 309 310 310 312 314 315 315 314 313 312 313 313 312 310 307 303 298 295 291
262 265 268 262 252 253 251 246 245 250 248 240 241 246 248 252 253 259 262 268 284 293 289 279 288 294 298 297 298 299 302 305 308 308 310 312 314 317 318 319 319 319 319 319 318 318 318 315 311 307 305 301 297 293
282 276 266 265 249 233 244 240 247 246 241 238 243 249 251 252 253 263 273 282 282 285 287 287 293 295 295 295 301 305 306 308 311 313 316 318 320 323 324 325 324 325 324 323 323 324 323 318 314 310 307 301 299 294
288 271 243 234 213 178 188 223 218 235 250 255 256 254 251 260 267 268 276 282 287 287 288 291 291 290 297 304 307 310 311 315 318 319 320 322 325 328 330 331 330 331 330 328 329 331 328 323 317 313 309 304 300 295
309 268 122 85 197 182 192 211 217 227 229 229 231 250 248 254 262 271 274 284 289 289 288 286 291 303 309 311 314 319 323 324 324 325 326 327 329 331 334 336 335 337 336 335 337 339 336 329 323 319 316 311 306 302
281 158 142 169 175 194 198 190 194 208 217 222 237 248 253 257 264 276 280 276 281 282 289 301 306 314 317 323 330 334 338 340 339 336 334 333 333 335 337 340 340 343 344 343 344 347 346 340 332 329 326 320 313 308
35 133 182 190 206 202 211 220 229 236 242 254 251 252 258 279 275 271 278 282 289 298 305 317 322 328 336 340 344 346 346 346 347 347 344 342 340 340 340 344 346 348 351 350 351 355 356 352 344 337 334 328 321 316
81 93 105 103 99 110 127 163 160 217 232 226 262 281 268 260 274 285 289 292 304 330 338 340 344 345 346 347 346 345 343 343 344 345 347 346 347 346 345 346 350 352 355 357 357 358 2 3 358 350 340 334 329 325
104 102 101 103 102 106 112 116 131 159 193 233 249 254 270 277 286 290 322 11 11 2 357 355 352 350 346 343 339 337 337 338 340 343 346 346 348 349 349 350 351 353 355 358 2 3 5 8 8 5 357 346 337 332
91 95 99 101 105 108 112 120 132 168 231 237 245 259 155 116 71 66 49 34 19 11 6 358 350 343 338 334 334 335 336 338 339 341 346 349 349 350 350 350 350 352 354 357 1 5 7 9 12 13 12 7 359 349
83 85 86 88 85 84 84 87 92 102 114 118 110 96 89 80 67 54 42 34 23 8 354 344 337 334 333 334 334 335 336 337 338 338 339 343 346 349 349 350 350 350 352 356 359 2 5 9 11 14 15 15 15 10
83 84 85 85 84 84 86 91 94 96 96 91 86 80 72 64 57 47 32 12 356 344 338 335 333 332 332 333 333 333 334 336 336 338 340 341 343 345 346 348 349 349 350 352 355 358 1 5 9 12 14 15 15 16
84 83 84 87 88 89 91 93 92 87 81 77 73 67 59 50 36 18 2 351 344 341 339 338 337 336 335 334 334 334 334 335 336 337 338 339 340 342 343 344 346 347 348 349 350 352 355 359 2 7 11 12 14 15
87 88 88 88 89 88 83 80 78 76 71 66 58 49 37 26 16 8 4 1 357 354 352 350 348 346 344 342 340 340 339 338 337 337 337 338 338 338 338 339 341 343 343 344 345 347 348 352 355 358 1 6 10 11
87 87 86 84 82 80 77 73 68 62 56 51 44 38 34 29 24 21 18 14 12 8 6 4 1 358 355 352 349 347 344 342 338 336 336 335 335 334 335 335 336 337 338 339 340 340 341 344 345 347 351 355 360 3
84 81 80 78 75 70 65 59 55 51 48 44 40 36 33 29 26 21 17 13 10 8 6 4 2 359 357 354 352 350 346 343 339 336 334 333 331 330 330 331 331 332 332 333 334 334 334 335 336 337 339 341 344 348
79 76 74 69 64 60 55 51 47 46 43 40 37 33 29 25 20 16 13 9 6 4 2 0 359 357 355 352 349 347 345 343 340 337 334 332 330 328 327 326 326 326 326 327 327 327 328 329 328 328 328 328 330 331
75 71 66 61 57 54 50 48 46 44 41 37 33 30 26 22 19 15 12 8 5 3 0 358 355 353 352 350 348 346 344 342 340 338 336 333 330 327 325 324 323 322 321 320 320 320 320 319 319 319 318 317 316 317
70 66 62 58 55 51 49 46 45 44 41 38 34 30 26 22 19 15 11 7 4 1 359 356 354 351 350 348 346 344 341 340 339 338 336 335 332 328 325 324 323 320 319 317 316 315 313 311 309 309 308 306 305 304